Location: Kellogg
(38.0159°N, 90.0546°W)
Time: 02:10:52
(UTC+00:00)

Transit 2A - Pass Details

Date: 16 September 2024
Orbit: 590 x 960 km, 66.7° (Epoch: 09 October)

Event Time Altitude Azimuth Distance (km) Brightness Sun altitude
Rises 09:21:22 0° 332° (NNW) 3,621 9.5 -27.6°
Reaches altitude 10° 09:23:59 10° 333° (NNW) 2,647 8.8 -27.1°
Maximum altitude 09:30:13 85° 62° (ENE) 894 6.2 -26.1°
Drops below altitude 10° 09:35:53 10° 151° (SSE) 2,425 8.6 -25.0°
Sets 09:38:12 0° 152° (SSE) 3,298 9.3 -24.6°
